Regional Weather Roundup
Issued by NWS Newport/Morehead, NC

Current Version | Previous Version | Graphics & Text | Print | Product List | Glossary On
Versions: 1 2 3 4 5 6 7 8 9 10 11 12 13 14 15 16 17 18 19 20 21 22 23 24 25 26 27 28 29 30 31 32 33 34 35 36 37 38 39 40 41 42 43 44 45 46 47 48 49 50
000
ASUS42 KMHX 260024
RWRMHX
WEATHER ROUNDUP FOR EASTERN NORTH CAROLINA
NATIONAL WEATHER SERVICE NEWPORT/MOREHEAD CITY NC
800 PM EDT SAT APR 25 2015

NOTE: "FAIR" INDICATES FEW OR NO CLOUDS BELOW 12,000 FEET
WITH NO SIGNIFICANT WEATHER AND/OR OBSTRUCTIONS TO VISIBILITY

NCZ015>017-031-032-045>047-102-103-260100-
NORTH COAST

CITY           SKY/WX    TMP DP  RH WIND       PRES   REMARKS
EDENTON        DRIZZLE   53  51  95 NE5       29.69F
ELIZABETH CITY LGT RAIN  49  45  86 E14       29.71F
KITTY HAWK     LGT RAIN  51  48  87 E7        29.69F
MANTEO         CLOUDY    52  48  87 E9        29.69F

$$

NCZ045>047-081-094-103-104-260100-
CENTRAL COAST

CITY           SKY/WX    TMP DP  RH WIND       PRES   REMARKS
FRISCO         LGT RAIN  57  54  89 E3        29.69F
SWANQUARTER      N/A     55 N/A N/A E7        29.62F

$$

NCZ095-097-098-100-101-260100-
SOUTHERN COAST

CITY           SKY/WX    TMP DP  RH WIND       PRES   REMARKS
BEAUFORT       LGT RAIN  61  59  93 E3        29.65F
CEDAR ISLAND     N/A     61 N/A N/A E6        29.68F
JACKSONVILLE   CLOUDY    61  58  90 NE5       29.63F
PINEY ISLAND   CLOUDY   N/A N/A N/A SE6       29.64F
WILMINGTON     CLOUDY    67  64  90 S7        29.62F


$$

NCZ011>013-027>030-043-044-078>080-089-090>093-098-260100-
COASTAL PLAIN

CITY           SKY/WX    TMP DP  RH WIND       PRES   REMARKS
AHOSKIE        LGT RAIN  48  47  96 E5        29.70F
CLINTON        CLOUDY    61  61 100 CALM      29.63S
ELIZABETHTOWN  CLOUDY    64  62  96 CALM      29.61F
GOLDSBORO      CLOUDY    57 N/A N/A NE5       29.62F
GREENVILLE     DRIZZLE   55  55 100 E6        29.69F
HAVELOCK       CLOUDY    60  57  89 SE9       29.65F
KENANSVILLE    CLOUDY    59  58  94 CALM      29.63F
KINSTON        DRIZZLE   57  55  94 N6        29.65F
NEW BERN       CLOUDY    61  57  87 CALM      29.65F
RICHLANDS      CLOUDY    59  55  88 CALM      29.63F
ROCKY MOUNT    CLOUDY    55  54  96 E3        29.65F FOG
WASHINGTON     DRIZZLE   56  55  96 NE6       29.67F
WHITEVILLE     MOCLDY    67  64  90 S5        29.62S

$$

AMZ130-135-150-152-154-156-158-170-250-252-270-ANZ085-086-088-633-658-670-260100-
MARINE OBSERVATIONS

STATION/POSITION TIME  TEMP    WIND        PRES    WAVE   SWELL
                       AIR SEA DIR/SP/G            HT/PER HT/PER
                 (UTC) (F)     (DEG/KT/KT) (MB)    (FT/S) (FT/S)
CHESAPEAKE LIGHT 0000   44      80/ 16/ 18 1007.9
64 E VA BEACH    2350   51 59   70/ 12/ 16 1007.1    3/ 7   2/ 7
DUCK             0000   50 55   60/ 17/ 19 1004.8
2 E DUCK         2311      54                N/A     3/13
10 NE DUCK       NOT AVBL
OREGON INLET     0000   53 59   50/  7/ 10 1005.1
HATTERAS CG      0000   60 65   30/  2/  5 1004.8
DIAMOND BUOY     2350   62 70  290/  2/  4 1005.7    3/ 8   3/ 8
CAPE LOOKOUT     0000   62     100/  7/  8 1003.7
BEAUFORT LAB     0000   61 63   90/  2/  4 1003.1
27 SE WRIGHTSVLE 0000   69 71  250/ 17/ 19   N/A
5 SE WRIGHTSVLE  2308   67 65  200/ 12/ 16 1003.9
225 S CAPE HAT   2350   71 71  210/ 21/ 25 1009.0    5/ 5   2/ 8
41 SE CHARLESTON 2350   72 71  220/ 19/ 21 1004.6    5/ 6   2/10

$$



USA.gov is the U.S. government's official web portal to all federal, state and local government web resources and services.